• In Portugal
  • List of Countries
  • For 7 days
  • Water Temperature
  • Satellite Maps
  • Weather Map
  • Weather Widgets
  • user-avatar
    Login

    Hourly Weather Bulgan

    Today, 23 October, Monday

    Time Temperature Precipitation Wind Pressure Humidity
    00:00 +1°C° 0 mm 1 mps 626 mmHg 54%
    01:00 +1°C° 0 mm 1 mps 626 mmHg 54%
    02:00 +1°C° 0 mm 1 mps 626 mmHg 54%
    03:00 +1°C° 0 mm 1 mps 626 mmHg 55%
    04:00 +1°C° 0 mm 1 mps 626 mmHg 55%
    05:00 -1°C° 0 mm 2 mps 626 mmHg 54%
    06:00 -1°C° 0 mm 2 mps 626 mmHg 54%
    07:00 -1°C° 0 mm 2 mps 626 mmHg 53%
    08:00 +2°C° 0 mm 2 mps 627 mmHg 49%
    09:00 +4°C° 0 mm 2 mps 627 mmHg 44%
    10:00 +5°C° 0 mm 2 mps 628 mmHg 39%
    11:00 +5°C° 0 mm 3 mps 628 mmHg 37%
    12:00 +8°C° 0 mm 3 mps 628 mmHg 35%
    13:00 +8°C° 0 mm 4 mps 628 mmHg 33%
    14:00 +8°C° 0 mm 3 mps 628 mmHg 37%
    15:00 +7°C° 0 mm 3 mps 627 mmHg 42%
    16:00 +6°C° 0 mm 2 mps 627 mmHg 46%
    17:00 +5°C° 0 mm 2 mps 627 mmHg 48%
    18:00 +4°C° 0 mm 2 mps 627 mmHg 50%
    19:00 +3°C° 0 mm 1 mps 628 mmHg 53%
    20:00 +3°C° 0 mm 1 mps 628 mmHg 53%
    21:00 +3°C° 0 mm 1 mps 628 mmHg 54%
    22:00 +2°C° 0 mm 1 mps 628 mmHg 55%
    23:00 +2°C° 0 mm 1 mps 628 mmHg 55%

    Tomorrow, 24 October, Tuesday

    Time Temperature Precipitation Wind Pressure Humidity
    00:00 +2°C° 0 mm 1 mps 629 mmHg 55%
    01:00 +2°C° 0 mm 1 mps 629 mmHg 56%
    02:00 0°C° 0 mm 0 mps 629 mmHg 56%
    03:00 0°C° 0 mm 0 mps 629 mmHg 56%
    04:00 0°C° 0 mm 0 mps 629 mmHg 57%
    05:00 0°C° 0 mm 0 mps 629 mmHg 57%
    06:00 0°C° 0 mm 0 mps 629 mmHg 58%
    07:00 0°C° 0 mm 0 mps 630 mmHg 58%
    08:00 +2°C° 0 mm 1 mps 630 mmHg 55%
    09:00 +3°C° 0 mm 1 mps 631 mmHg 51%
    10:00 +5°C° 0 mm 1 mps 631 mmHg 48%
    11:00 +5°C° 0 mm 1 mps 631 mmHg 46%
    12:00 +6°C° 0 mm 1 mps 631 mmHg 45%
    13:00 +7°C° 0 mm 1 mps 630 mmHg 44%
    14:00 +6°C° 0 mm 1 mps 630 mmHg 48%
    15:00 +6°C° 0 mm 1 mps 630 mmHg 52%
    16:00 +5°C° 0 mm 1 mps 629 mmHg 56%
    17:00 +4°C° 0 mm 1 mps 629 mmHg 60%
    18:00 +3°C° 0 mm 1 mps 629 mmHg 64%
    19:00 +2°C° 0 mm 1 mps 629 mmHg 68%
    20:00 +1°C° 0 mm 1 mps 629 mmHg 68%
    21:00 +1°C° 0 mm 1 mps 629 mmHg 68%
    22:00 +1°C° 0 mm 1 mps 629 mmHg 69%
    23:00 +1°C° 0 mm 1 mps 628 mmHg 68%

    Day after tomorrow, 25 October, Wednesday

    Time Temperature Precipitation Wind Pressure Humidity
    00:00 +1°C° 0 mm 1 mps 628 mmHg 68%
    01:00 +1°C° 0 mm 1 mps 628 mmHg 67%
    02:00 +1°C° 0 mm 1 mps 627 mmHg 67%
    03:00 0°C° 0 mm 1 mps 627 mmHg 67%
    04:00 0°C° 0 mm 1 mps 627 mmHg 67%
    05:00 0°C° 0 mm 1 mps 627 mmHg 66%
    06:00 0°C° 0 mm 1 mps 627 mmHg 65%
    07:00 -2°C° 0 mm 2 mps 627 mmHg 64%
    08:00 +1°C° 0 mm 2 mps 628 mmHg 58%
    09:00 +3°C° 0 mm 2 mps 628 mmHg 51%
    10:00 +5°C° 0 mm 2 mps 628 mmHg 44%
    11:00 +5°C° 0 mm 3 mps 628 mmHg 41%
    12:00 +6°C° 0 mm 4 mps 628 mmHg 37%
    13:00 +7°C° 0 mm 4 mps 628 mmHg 34%
    14:00 +6°C° 0 mm 4 mps 627 mmHg 37%
    15:00 +5°C° 0 mm 3 mps 627 mmHg 41%
    16:00 +4°C° 0 mm 3 mps 626 mmHg 45%
    17:00 +4°C° 0 mm 2 mps 626 mmHg 47%
    18:00 +3°C° 0 mm 2 mps 626 mmHg 50%
    19:00 +2°C° 0 mm 2 mps 626 mmHg 52%
    20:00 +1°C° 0 mm 2 mps 626 mmHg 52%
    21:00 +1°C° 0 mm 2 mps 626 mmHg 52%
    22:00 +1°C° 0 mm 2 mps 626 mmHg 52%
    23:00 +1°C° 0 mm 2 mps 625 mmHg 52%

    26 October, Thursday

    Time Temperature Precipitation Wind Pressure Humidity
    00:00 +1°C° 0 mm 2 mps 625 mmHg 51%
    01:00 -1°C° 0 mm 2 mps 625 mmHg 51%
    02:00 -1°C° 0 mm 2 mps 624 mmHg 51%
    03:00 -1°C° 0 mm 2 mps 624 mmHg 50%
    04:00 -1°C° 0 mm 2 mps 624 mmHg 50%
    05:00 -1°C° 0 mm 2 mps 623 mmHg 49%
    06:00 -1°C° 0 mm 2 mps 623 mmHg 49%
    07:00 -1°C° 0 mm 2 mps 623 mmHg 48%
    08:00 +2°C° 0 mm 2 mps 623 mmHg 44%
    09:00 +3°C° 0 mm 2 mps 623 mmHg 41%
    10:00 +5°C° 0 mm 2 mps 623 mmHg 37%
    11:00 +5°C° 0 mm 3 mps 622 mmHg 35%
    12:00 +7°C° 0 mm 3 mps 622 mmHg 33%
    13:00 +8°C° 0 mm 3 mps 622 mmHg 31%
    14:00 +7°C° 0 mm 3 mps 621 mmHg 35%
    15:00 +5°C° 0 mm 3 mps 621 mmHg 40%
    16:00 +4°C° 0 mm 3 mps 621 mmHg 44%
    17:00 +3°C° 0 mm 4 mps 621 mmHg 48%
    18:00 0°C° 0 mm 5 mps 622 mmHg 52%
    19:00 -2°C° 0 mm 5 mps 622 mmHg 56%
    20:00 -4°C° 0 mm 7 mps 623 mmHg 50%
    21:00 -6°C° 0 mm 9 mps 624 mmHg 44%
    22:00 -8°C° 0 mm 11 mps 625 mmHg 38%
    23:00 -9°C° 0 mm 11 mps 626 mmHg 40%

    27 October, Friday

    Time Temperature Precipitation Wind Pressure Humidity
    00:00 -9°C° 0 mm 10 mps 626 mmHg 41%
    01:00 -10°C° 0 mm 10 mps 627 mmHg 42%
    02:00 -10°C° 0 mm 9 mps 628 mmHg 39%
    03:00 -10°C° 0 mm 8 mps 628 mmHg 36%
    04:00 -9°C° 0 mm 7 mps 629 mmHg 34%
    05:00 -9°C° 0 mm 7 mps 629 mmHg 34%
    06:00 -11°C° 0 mm 7 mps 629 mmHg 33%
    07:00 -10°C° 0 mm 6 mps 630 mmHg 33%
    08:00 -10°C° 0 mm 6 mps 630 mmHg 31%
    09:00 -9°C° 0 mm 7 mps 631 mmHg 30%
    10:00 -9°C° 0 mm 7 mps 631 mmHg 28%
    11:00 -8°C° 0 mm 7 mps 631 mmHg 27%
    12:00 -7°C° 0 mm 7 mps 631 mmHg 26%
    13:00 -7°C° 0 mm 7 mps 631 mmHg 25%
    14:00 -6°C° 0 mm 6 mps 631 mmHg 26%
    15:00 -6°C° 0 mm 6 mps 631 mmHg 26%
    16:00 -6°C° 0 mm 5 mps 631 mmHg 27%
    17:00 -7°C° 0 mm 5 mps 632 mmHg 29%
    18:00 -7°C° 0 mm 4 mps 632 mmHg 31%
    19:00 -8°C° 0 mm 4 mps 633 mmHg 33%
    20:00 -7°C° 0 mm 3 mps 633 mmHg 34%
    21:00 -7°C° 0 mm 3 mps 633 mmHg 35%
    22:00 -8°C° 0 mm 3 mps 634 mmHg 36%
    23:00 -8°C° 0 mm 3 mps 634 mmHg 37%

    28 October, Saturday

    Time Temperature Precipitation Wind Pressure Humidity
    00:00 -8°C° 0 mm 3 mps 634 mmHg 39%
    01:00 -7°C° 0 mm 2 mps 634 mmHg 40%
    02:00 -8°C° 0 mm 2 mps 634 mmHg 42%
    03:00 -8°C° 0 mm 2 mps 634 mmHg 43%
    04:00 -8°C° 0 mm 2 mps 634 mmHg 44%
    05:00 -8°C° 0 mm 2 mps 634 mmHg 45%
    06:00 -8°C° 0 mm 2 mps 634 mmHg 46%
    07:00 -8°C° 0 mm 2 mps 635 mmHg 47%
    08:00 -7°C° 0 mm 2 mps 635 mmHg 43%
    09:00 -6°C° 0 mm 2 mps 635 mmHg 39%
    10:00 -5°C° 0 mm 2 mps 636 mmHg 35%
    11:00 -4°C° 0 mm 2 mps 636 mmHg 33%
    12:00 -3°C° 0 mm 2 mps 636 mmHg 30%
    13:00 -4°C° 0 mm 3 mps 636 mmHg 28%
    14:00 -3°C° 0 mm 2 mps 635 mmHg 29%
    15:00 -3°C° 0 mm 2 mps 635 mmHg 30%
    16:00 -2°C° 0 mm 1 mps 634 mmHg 32%
    17:00 -2°C° 0 mm 1 mps 634 mmHg 33%
    18:00 -3°C° 0 mm 1 mps 634 mmHg 34%
    19:00 -4°C° 0 mm 1 mps 634 mmHg 36%
    20:00 -6°C° 0 mm 2 mps 634 mmHg 35%
    21:00 -6°C° 0 mm 2 mps 633 mmHg 35%
    22:00 -6°C° 0 mm 2 mps 633 mmHg 35%
    23:00 -6°C° 0 mm 2 mps 633 mmHg 34%
    Show more